Regional Weather Roundup
Issued by NWS

Home | Current Version | Previous Version | Text Only | Print | Product List | Glossary On
Versions: 1 2 3 4 5 6 7 8 9 10 11 12 13 14 15 16 17 18 19 20 21 22 23 24 25 26 27 28 29 30 31 32 33 34 35 36 37 38 39 40 41 42 43 44 45 46 47 48 49 50
000
ASUS46 KSTO 282015
RWRCA

NORTHERN AND CENTRAL CA REGIONAL WEATHER ROUNDUP
NATIONAL WEATHER SERVICE SACRAMENTO CA
100 PM PDT TUE MAR 28 2017

NOTE: FAIR INDICATES FEW OR NO CLOUDS BELOW 12,000 FEET WITH NO
SIGNIFICANT WEATHER AND/OR OBSTRUCTIONS TO VISIBILITY.

CAZ001-003-282100-
NORTHWEST AREA

CITY           SKY/WX    TMP DP  RH WIND       PRES   REMARKS
CRESCENT CITY  PTSUNNY   55  45  68 S6        30.38F
UKIAH          SUNNY     68  40  35 W15G21    30.24F
$$

CAZ006-505>513-282100-
BAY AREA

CITY           SKY/WX    TMP DP  RH WIND       PRES   REMARKS
SANTA ROSA     SUNNY     71  43  36 NW15      30.19F
SAN RAFAEL     N/A       67  MM  MM MISG
NAPA           SUNNY     74  39  28 N15G31    30.18F
CONCORD        SUNNY     71  44  37 NW15      30.18F
OAKLAND CITY   N/A      MM  MM  MM MISG
OAKLAND        MOSUNNY   70  43  37 NW14      30.20F
SAN FRAN CITY  N/A       64  MM  49 MISG
SAN FRAN ARPT  MOSUNNY   65  47  52 W20       30.20F
LIVERMORE      SUNNY     68  39  34 NW8       30.18F
HAYWARD        SUNNY     71  41  33 NW13G21   30.19S
REDWOOD CITY   N/A       68  MM  37 MISG
MOFFETT ARPT   SUNNY     66  49  54 N9        30.21F
SAN JOSE ARPT  MOSUNNY   65  43  44 W12       30.20F
$$
CAZ034-037-514>518-282100-
CENTRAL COAST

CITY           SKY/WX    TMP DP  RH WIND       PRES   REMARKS
WATSONVILLE    SUNNY     64  50  60 S9        30.19F
SALINAS        SUNNY     67  45  45 W10       30.18F
MONTEREY       SUNNY     60  49  66 W9        30.21F
SAN LUIS OBISP SUNNY     71  44  37 N10       30.13F
SANTA MARIA    MOSUNNY   69  47  45 NW16G24   30.11F
$$
CAZ015-016-282100-
NORTHERN SACRAMENTO VALLEY

CITY           SKY/WX    TMP DP  RH WIND       PRES   REMARKS
REDDING        SUNNY     67  39  35 NE12      30.26F
RED BLUFF      SUNNY     68  39  34 N21G31    30.25F
OROVILLE       SUNNY     68  42  38 NW18G29   30.19F
$$
CAZ016>018-282100-
SOUTHERN SACRAMENTO VALLEY

CITY           SKY/WX    TMP DP  RH WIND       PRES   REMARKS
AUBURN         SUNNY     64  43  45 W12       30.17R
BEALE AFB      SUNNY     68  44  41 NW28G33   30.14S
LINCOLN        FAIR      68  37  32 NW20G29   30.15S
MARYSVILLE     SUNNY     69  42  37 NW25G31   30.17R
SAC INTL ARPT  SUNNY     68  43  40 N24G32    30.16F
MATHER AIRPORT SUNNY     68  39  34 N17G24    30.16F
DOWNTOWN SAC   N/A       69  MM  MM MISG
SAC EXEC ARPT  SUNNY     68  40  35 NW24G32   30.16F
VACAVILLE      SUNNY     71  38  29 N21G29    30.19S
TRAVIS AFB     SUNNY     69  40  35 N21G29    30.16S
$$
CAZ019>021-282100-
SAN JOAQUIN VALLEY

CITY           SKY/WX    TMP DP  RH WIND       PRES   REMARKS
STOCKTON       SUNNY     69  45  41 N14G21    30.16F
MODESTO        SUNNY     67  43  41 N12G25    30.16F
MERCED         SUNNY     64  42  44 N12G17    30.16F
FRESNO         PTSUNNY   63  47  55 SE6       30.16F
HANFORD        SUNNY     62  47  57 VRB3      30.16F
PORTERVILLE    SUNNY     64  46  52 SE10G16   30.16F
BAKERSFIELD    MOSUNNY   63  42  46 VRB5      30.16F
$$
CAZ011-012-071-282100-
NORTHERN MOUNTAINS

CITY           SKY/WX    TMP DP  RH WIND       PRES   REMARKS
YREKA          PTSUNNY   54  36  50 NE6       30.37S
MOUNT SHASTA   MOSUNNY   53  32  44 NW10G22   30.32R
ALTURAS        CLOUDY    48  29  47 VRB3      30.31F
$$
CAZ011-012-071-282100-
SIERRA NEVADA MTNS

CITY           SKY/WX    TMP DP  RH WIND       PRES   REMARKS
BLUE CANYON    SUNNY     51  24  34 NE8G17    30.22R
TRUCKEE        MOSUNNY   45  25  45 N6        30.25
TAHOE VLY ARPT SUNNY     45  20  36 VRB3      30.21F
MAMMOTH LAKES  FAIR      47  14  26 CALM      30.25F
$$




USA.gov is the U.S. government's official web portal to all federal, state and local government web resources and services.